El Paso, TX

7:16 PM MDT on April 22, 2018 (GMT -0600)
El Paso International

Weather History for KELP - February, 2012

Change the Weather History Date:

Wednesday, February 1, 2012

  Actual Average Record
Temperature  
Mean Temperature 51 °F 47 °F  
Max Temperature 66 °F 60 °F 77 °F (1963)
Min Temperature 36 °F 34 °F 10 °F (1951)
Degree Days  
Heating Degree Days 14 18  
Month to date heating degree days 14 18  
Since 1 July heating degree days 1622 1703  
Cooling Degree Days 0 0  
Month to date cooling degree days 0 0  
Year to date cooling degree days 0 0  
Growing Degree Days 2 (Base 50)    
Moisture  
Dew Point 18 °F    
Average Humidity 33    
Maximum Humidity 52    
Minimum Humidity 13    
Precipitation  
Precipitation 0.00 in 0.02 in 0.17 in (1926)
Month to date precipitation 0.00 0.02  
Year to date precipitation 0.66 0.42  
Snow  
Snow 0.00 in - - ()
Month to date snowfall 0.0  
Since 1 July snowfall 3.2  
Snow Depth 0.00 in    
Sea Level Pressure  
Sea Level Pressure 30.07 in    
Wind  
Wind Speed 5 mph (NNE)    
Max Wind Speed 12 mph    
Max Gust Speed 13 mph    
Visibility 10 miles    
Events      
T = Trace of Precipitation, MM = Missing Value Source: NWS Daily Summary

Daily Weather History Graph

Daily Weather History Graph

Search for Another Location

Airport or City:

Astronomy

Feb. 01, 2012 Rise Set
Actual Time 6:59 AM MST 5:39 PM MST
Civil Twilight 6:33 AM MST 6:05 PM MST
Nautical Twilight 6:04 AM MST 6:34 PM MST
Astronomical Twilight 5:35 AM MST 7:03 PM MST
Moon 12:14 PM MST (2/1) 1:42 AM MST (2/1)
Length of Visible Light 11h 31m
Length of Day
10h 40m
Waxing Gibbous, 65% of the Moon is Illuminated
Feb 1
Waxing Gibbous
Feb 7
Full
Feb 14
Last Quarter
Feb 21
New
Feb 29
First Quarter

Hourly Weather History & Observations

Time (MST) Temp. Windchill Dew Point Humidity Pressure Visibility Wind Dir Wind Speed Gust Speed Precip Events Conditions
12:51 AM 48.9 °F - 24.1 °F 38% 30.03 in 10.0 mi WSW 3.5 mph - N/A   Partly Cloudy
1:51 AM 44.1 °F 40.8 °F 23.0 °F 43% 30.06 in 10.0 mi ESE 5.8 mph - N/A   Clear
2:51 AM 43.0 °F 38.2 °F 23.0 °F 45% 30.05 in 10.0 mi SSE 8.1 mph - N/A   Clear
3:51 AM 44.1 °F 40.8 °F 21.0 °F 40% 30.05 in 10.0 mi South 5.8 mph - N/A   Clear
4:51 AM 37.9 °F 32.7 °F 21.9 °F 53% 30.09 in 10.0 mi East 6.9 mph - N/A   Clear
5:51 AM 37.0 °F - 21.9 °F 54% 30.12 in 10.0 mi Calm Calm - N/A   Clear
6:51 AM 39.0 °F 35.7 °F 21.9 °F 50% 30.15 in 10.0 mi North 4.6 mph - N/A   Clear
7:51 AM 43.0 °F 41.3 °F 21.9 °F 43% 30.17 in 10.0 mi North 3.5 mph - N/A   Clear
8:51 AM 51.1 °F - 21.9 °F 32% 30.18 in 10.0 mi NNE 4.6 mph - N/A   Clear
9:51 AM 55.0 °F - 17.1 °F 23% 30.18 in 10.0 mi North 6.9 mph - N/A   Clear
10:51 AM 59.0 °F - 17.1 °F 20% 30.16 in 10.0 mi North 6.9 mph - N/A   Clear
11:51 AM 61.0 °F - 17.1 °F 18% 30.12 in 10.0 mi NNE 9.2 mph - N/A   Clear
12:51 PM 63.0 °F - 17.1 °F 17% 30.08 in 10.0 mi NNW 5.8 mph - N/A   Partly Cloudy
1:51 PM 64.0 °F - 16.0 °F 16% 30.06 in 10.0 mi NW 4.6 mph - N/A   Scattered Clouds
2:51 PM 66.0 °F - 14.0 °F 13% 30.04 in 10.0 mi NNE 4.6 mph - N/A   Scattered Clouds
3:51 PM 66.0 °F - 14.0 °F 13% 30.01 in 10.0 mi North 4.6 mph - N/A   Scattered Clouds
4:51 PM 63.0 °F - 14.0 °F 15% 30.01 in 10.0 mi Calm Calm - N/A   Partly Cloudy
5:51 PM 60.1 °F - 15.1 °F 17% 30.02 in 10.0 mi NNE 5.8 mph - N/A   Scattered Clouds
6:51 PM 55.9 °F - 15.1 °F 20% 30.03 in 10.0 mi Calm Calm - N/A   Mostly Cloudy
7:51 PM 54.0 °F - 14.0 °F 21% 30.02 in 10.0 mi North 4.6 mph - N/A   Mostly Cloudy
8:51 PM 50.0 °F - 15.1 °F 25% 30.01 in 10.0 mi NNE 8.1 mph - N/A   Scattered Clouds
9:51 PM 48.0 °F - 15.1 °F 27% 30.00 in 10.0 mi North 6.9 mph - N/A   Scattered Clouds
10:51 PM 45.0 °F 42.6 °F 16.0 °F 31% 29.98 in 10.0 mi North 4.6 mph - N/A   Scattered Clouds
11:51 PM 44.1 °F 40.1 °F 15.1 °F 31% 29.96 in 10.0 mi NE 6.9 mph - N/A   Partly Cloudy